Change the Weather History Date:

Sunday, October 14, 2012

  Actual Average Record
Temperature  
Mean Temperature 46 °F -  
Max Temperature 54 °F 53 °F 68 °F (2005)
Min Temperature 38 °F 42 °F 38 °F (2012)
Degree Days  
Heating Degree Days 19    
Moisture  
Dew Point 40 °F    
Average Humidity 80    
Maximum Humidity 100    
Minimum Humidity 50    
Precipitation  
Precipitation 0.01 in - - ()
Sea Level Pressure  
Sea Level Pressure 29.55 in    
Wind  
Wind Speed 6 mph ()    
Max Wind Speed 14 mph    
Max Gust Speed -    
Visibility 6.4 miles    
Events Rain    
Averages and records for this station are not official NWS values.
T = Trace of Precipitation, MM = Missing Value Source: Averaged Metar Reports

Daily Weather History Graph

Daily Weather History Graph

Search for Another Location

Airport or City:

Trip Planner

Search our weather history database for the weather conditions in past years. The results will help you decide how hot, cold, wet, or windy it might be!

Date:

Astronomy

Oct. 14, 2012 Rise Set
Actual Time 8:09 AM CEST 6:57 PM CEST
Civil Twilight 7:36 AM CEST 7:30 PM CEST
Nautical Twilight 6:58 AM CEST 8:07 PM CEST
Astronomical Twilight 6:20 AM CEST 8:45 PM CEST
Moon 6:46 AM CEST (10/14) 6:07 PM CEST (10/14)
Length of Visible Light 11h 53m
Length of Day
10h 47m
Waning Crescent, 2% of the Moon is Illuminated
Oct 14
Waning Crescent
Oct 15
New
Oct 22
First Quarter
Oct 29
Full
Nov 7
Last Quarter

Hourly Weather History & Observations

Time (CEST) Temp. Windchill Dew Point Humidity Pressure Visibility Wind Dir Wind Speed Gust Speed Precip Events Conditions
12:00 AM 42.8 °F 37.5 °F 41.0 °F 93% 29.65 in - SW 9.2 mph - N/A   Clear
1:00 AM 42.8 °F 37.5 °F 41.0 °F 93% 29.65 in 6.2 mi SW 9.2 mph - N/A   Scattered Clouds
2:00 AM 44.6 °F 39.2 °F 41.0 °F 87% 29.62 in 6.2 mi SW 10.4 mph - N/A   Scattered Clouds
2:30 AM 42.8 °F 37.5 °F 41.0 °F 93% 29.62 in 6.2 mi WSW 9.2 mph - N/A   Unknown
3:00 AM 42.8 °F 39.3 °F 39.2 °F 87% 29.62 in 6.2 mi WSW 5.8 mph - N/A   Unknown
3:30 AM 42.8 °F 38.0 °F 41.0 °F 93% 29.62 in 6.2 mi WSW 8.1 mph - N/A   Unknown
4:00 AM 42.8 °F 38.6 °F 39.2 °F 87% 29.62 in 6.2 mi SW 6.9 mph - N/A   Unknown
4:30 AM 42.8 °F 39.3 °F 39.2 °F 87% 29.62 in 6.2 mi SW 5.8 mph - N/A   Unknown
5:00 AM 41.0 °F 36.4 °F 39.2 °F 93% 29.62 in 6.2 mi SW 6.9 mph - N/A   Mostly Cloudy
6:00 AM 41.0 °F 35.8 °F 39.2 °F 93% 29.62 in - SW 8.1 mph - N/A   Clear
6:30 AM 41.0 °F 36.4 °F 39.2 °F 93% 29.59 in - SW 6.9 mph - N/A   Clear
7:00 AM 41.0 °F 36.4 °F 39.2 °F 93% 29.59 in - SW 6.9 mph - N/A   Clear
7:30 AM 39.2 °F - 37.4 °F 93% 29.59 in - Variable 2.3 mph - N/A   Clear
8:00 AM 38 °F - 36 °F 92% 29.62 in 31 mi Calm Calm - -   Partly Cloudy
8:30 AM 39.2 °F 37.0 °F 37.4 °F 93% 29.59 in - South 3.5 mph - N/A   Clear
9:00 AM 39.2 °F 37.0 °F 39.2 °F 100% 29.59 in - SSW 3.5 mph - N/A   Clear
9:30 AM 41.0 °F 37.1 °F 39.2 °F 93% 29.59 in - South 5.8 mph - N/A   Clear
10:00 AM 42.8 °F 39.3 °F 42.8 °F 100% 29.59 in - SSW 5.8 mph - N/A   Clear
10:30 AM 44.6 °F 43.1 °F 42.8 °F 93% 29.56 in - Variable 3.5 mph - N/A   Clear
11:00 AM 46.4 °F - 42.8 °F 87% 29.56 in - Variable 2.3 mph - N/A   Clear
11:30 AM 50.0 °F - 44.6 °F 82% 29.56 in 6.2 mi Variable 1.2 mph - N/A   Partly Cloudy
12:00 PM 50.0 °F - 42.8 °F 76% 29.56 in 6.2 mi NW 4.6 mph - N/A   Partly Cloudy
12:30 PM 51.8 °F - 41.0 °F 67% 29.53 in 6.2 mi WNW 4.6 mph - N/A   Partly Cloudy
1:00 PM 53.6 °F - 41.0 °F 62% 29.53 in 6.2 mi WNW 4.6 mph - N/A   Scattered Clouds
1:30 PM 53.6 °F - 41.0 °F 62% 29.53 in 6.2 mi NW 3.5 mph - N/A   Scattered Clouds
2:00 PM 53 °F - 40 °F 50% 29.54 in 31 mi West 3.5 mph - -   Partly Cloudy
2:00 PM 53.6 °F - 39.2 °F 58% 29.53 in 6.2 mi Variable 3.5 mph - N/A   Scattered Clouds
2:30 PM 51.8 °F - 39.2 °F 62% 29.50 in 6.2 mi North 5.8 mph - N/A   Scattered Clouds
3:00 PM 51.8 °F - 39.2 °F 62% 29.50 in 6.2 mi North 5.8 mph - N/A   Scattered Clouds
3:30 PM 53.6 °F - 39.2 °F 58% 29.50 in 6.2 mi Variable 3.5 mph - N/A   Scattered Clouds
4:00 PM 53.6 °F - 41.0 °F 62% 29.50 in 6.2 mi Variable 2.3 mph - N/A   Scattered Clouds
4:30 PM 51.8 °F - 41.0 °F 67% 29.50 in 6.2 mi NNW 8.1 mph - N/A   Scattered Clouds
5:00 PM 51.8 °F - 41.0 °F 67% 29.50 in 6.2 mi North 6.9 mph - N/A   Mostly Cloudy
5:30 PM 51.8 °F - 39.2 °F 62% 29.50 in 6.2 mi North 9.2 mph - N/A   Mostly Cloudy
6:00 PM 51.8 °F - 39.2 °F 62% 29.50 in 6.2 mi North 8.1 mph - N/A   Mostly Cloudy
6:30 PM 51.8 °F - 39.2 °F 62% 29.50 in 6.2 mi North 5.8 mph - N/A   Mostly Cloudy
7:00 PM 50.0 °F - 39.2 °F 66% 29.50 in 6.2 mi NNW 5.8 mph - N/A   Mostly Cloudy
7:30 PM 48.2 °F - 39.2 °F 71% 29.50 in 6.2 mi NNW 5.8 mph - N/A   Mostly Cloudy
8:00 PM 46 °F - 39 °F 70% 29.53 in 12 mi NW 4.6 mph - -   Partly Cloudy
8:00 PM 46.4 °F 44.3 °F 39.2 °F 76% 29.50 in 6.2 mi NW 4.6 mph - N/A   Mostly Cloudy
8:30 PM 44.6 °F 41.4 °F 39.2 °F 81% 29.50 in 6.2 mi WNW 5.8 mph - N/A   Mostly Cloudy
9:00 PM 44.6 °F 40.7 °F 39.2 °F 81% 29.50 in - West 6.9 mph - N/A   Clear
9:30 PM 44.6 °F 40.7 °F 41.0 °F 87% 29.50 in - West 6.9 mph - N/A   Clear
10:00 PM 44.6 °F 40.2 °F 41.0 °F 87% 29.50 in 6.2 mi West 8.1 mph - N/A   Mostly Cloudy
10:30 PM 46.4 °F 42.4 °F 42.8 °F 87% 29.50 in 6.2 mi West 8.1 mph - N/A Rain Light Rain
11:00 PM 44.6 °F 39.7 °F 41.0 °F 87% 29.50 in 6.2 mi West 9.2 mph - N/A   Mostly Cloudy
11:30 PM 46.4 °F 40.4 °F 42.8 °F 87% 29.50 in 6.2 mi WNW 13.8 mph - N/A   Mostly Cloudy